Tracking 28091 objects as of 30-Sep-2023
HD Live streaming from Space Station
objects crossing your sky now

COSMOS 1823 DEB

Track COSMOS 1823 DEB now!
10-day predictions


NORAD ID: 29357
Int'l Code: 1987-020DY
Perigee: 1,157.4 km
Apogee: 1,496.9 km
Inclination: 73.8 °
Period: 112.0 minutes
Semi major axis: 7698 km
RCS: 0.003 m2 (small)
Launch date: February 20, 1987
Source: Commonwealth of Independent States (former USSR) (CIS)
Launch site: PLESETSK MISSILE AND SPACE COMPLEX (PKMTR)

Note: This is SATELLITE DEBRIS
Your satellite tracking list
Your tracking list is empty




NASA's NSSDC Master Catalog

Two Line Element Set (TLE):
1 29357U 87020DY  23272.23771045  .00000062  00000-0  30301-3 0  9996
2 29357  73.7892 100.0405 0220504 274.5449 201.9040 12.85362978474790
Source of the keplerian elements: AFSPC